�������l�o���
Date,Time,MP-1(��Sv/h),MP-2(��Sv/h),MP-3(��Sv/h),MP-4(��Sv/h),MP-5(��Sv/h),MP-6(��Sv/h),MP-7(��Sv/h),MP-8(��Sv/h),����,����(m/s),���J
2024/06/02,00:00,0.486,0.745,0.473,0.913,0.666,0.309,0.542,0.502,�k�k��,4.9,�L
2024/06/02,00:10,0.485,0.744,0.472,0.911,0.665,0.308,0.543,0.503,�k�k��,5.0,��
2024/06/02,00:20,0.486,0.742,0.473,0.913,0.666,0.309,0.541,0.503,�k�k��,4.6,��
2024/06/02,00:30,0.485,0.745,0.473,0.911,0.667,0.311,0.541,0.502,�k�k��,4.5,��
2024/06/02,00:40,0.486,0.744,0.472,0.911,0.667,0.309,0.541,0.503,�k�k��,4.7,��
2024/06/02,00:50,0.488,0.744,0.472,0.911,0.665,0.310,0.543,0.503,�k�k��,3.9,��
2024/06/02,01:00,0.485,0.745,0.472,0.913,0.666,0.311,0.541,0.503,�k�k��,3.8,��
2024/06/02,01:10,0.485,0.743,0.472,0.912,0.667,0.309,0.542,0.502,�k�k��,3.3,��
2024/06/02,01:20,0.487,0.744,0.471,0.914,0.668,0.309,0.542,0.503,�k�k��,3.5,��
2024/06/02,01:30,0.487,0.744,0.472,0.912,0.665,0.310,0.543,0.502,�k�k��,4.0,��
2024/06/02,01:40,0.486,0.745,0.473,0.912,0.666,0.310,0.543,0.503,�k�k��,4.2,�L
2024/06/02,01:50,0.487,0.744,0.473,0.911,0.666,0.310,0.542,0.503,�k�k��,4.3,�L
2024/06/02,02:00,0.487,0.744,0.473,0.913,0.666,0.309,0.543,0.501,�k�k��,4.6,�L
2024/06/02,02:10,0.485,0.744,0.473,0.913,0.665,0.307,0.542,0.502,�k�k��,4.4,�L
2024/06/02,02:20,0.486,0.744,0.472,0.913,0.667,0.310,0.542,0.503,�k�k��,4.3,�L
2024/06/02,02:30,0.487,0.744,0.474,0.913,0.667,0.311,0.541,0.503,�k��,3.8,�L
2024/06/02,02:40,0.485,0.746,0.473,0.913,0.666,0.310,0.542,0.503,�k��,3.1,�L
2024/06/02,02:50,0.487,0.746,0.472,0.915,0.667,0.310,0.542,0.502,�k��,4.4,�L
2024/06/02,03:00,0.487,0.745,0.474,0.912,0.666,0.310,0.542,0.502,�k��,3.4,�L
2024/06/02,03:10,0.487,0.746,0.472,0.912,0.667,0.310,0.541,0.502,�k��,4.4,�L
2024/06/02,03:20,0.486,0.746,0.472,0.914,0.666,0.310,0.541,0.504,�k�k��,4.4,�L
2024/06/02,03:30,0.486,0.746,0.471,0.913,0.668,0.310,0.542,0.503,�k�k��,3.6,�L
2024/06/02,03:40,0.486,0.743,0.473,0.911,0.665,0.309,0.542,0.503,�k��,4.9,��
2024/06/02,03:50,0.486,0.746,0.472,0.913,0.666,0.310,0.542,0.503,�k��,3.1,��
2024/06/02,04:00,0.487,0.745,0.472,0.912,0.667,0.309,0.542,0.503,�k��,5.0,��
2024/06/02,04:10,0.486,0.743,0.472,0.911,0.664,0.310,0.543,0.503,�k�k��,4.6,��
2024/06/02,04:20,0.486,0.746,0.473,0.914,0.665,0.310,0.542,0.503,�k�k��,4.7,��
2024/06/02,04:30,0.485,0.746,0.473,0.913,0.666,0.309,0.542,0.504,�k�k��,3.2,��
2024/06/02,04:40,0.487,0.747,0.474,0.913,0.668,0.309,0.543,0.503,�k�k��,5.1,��
2024/06/02,04:50,0.485,0.744,0.471,0.913,0.667,0.310,0.543,0.503,�k�k��,5.6,��
2024/06/02,05:00,0.485,0.746,0.471,0.912,0.666,0.310,0.542,0.503,�k�k��,4.8,��
2024/06/02,05:10,0.485,0.745,0.472,0.910,0.666,0.308,0.544,0.502,�k�k��,5.7,��
2024/06/02,05:20,0.486,0.744,0.473,0.912,0.665,0.309,0.542,0.502,�k�k��,5.3,��
2024/06/02,05:30,0.485,0.745,0.472,0.914,0.665,0.310,0.543,0.504,�k�k��,4.5,��
2024/06/02,05:40,0.486,0.744,0.472,0.913,0.667,0.308,0.543,0.502,�k�k��,3.7,��
2024/06/02,05:50,0.486,0.745,0.473,0.911,0.664,0.310,0.542,0.505,�k�k��,4.3,��
2024/06/02,06:00,0.486,0.747,0.473,0.914,0.667,0.310,0.543,0.502,�k�k��,3.7,��
2024/06/02,06:10,0.487,0.742,0.473,0.913,0.665,0.309,0.543,0.504,�k�k��,3.1,��
2024/06/02,06:20,0.487,0.747,0.475,0.913,0.667,0.310,0.543,0.502,�k�k��,3.1,��
2024/06/02,06:30,0.487,0.747,0.473,0.913,0.667,0.310,0.544,0.504,�k��,3.4,��
2024/06/02,06:40,0.486,0.744,0.471,0.914,0.666,0.310,0.542,0.503,�k�k��,3.2,��
2024/06/02,06:50,0.487,0.745,0.472,0.912,0.666,0.309,0.543,0.504,�k�k��,2.6,��
2024/06/02,07:00,0.488,0.745,0.474,0.914,0.668,0.310,0.542,0.504,�k�k��,2.3,��
2024/06/02,07:10,0.486,0.744,0.475,0.913,0.666,0.308,0.542,0.502,�k�k��,2.8,��
2024/06/02,07:20,0.484,0.744,0.474,0.913,0.667,0.310,0.542,0.503,�k,2.3,��
2024/06/02,07:30,0.485,0.744,0.475,0.912,0.666,0.308,0.543,0.503,�k�k��,3.6,��
2024/06/02,07:40,0.485,0.743,0.473,0.915,0.668,0.308,0.542,0.502,�k�k��,3.5,��
2024/06/02,07:50,0.483,0.745,0.474,0.913,0.665,0.308,0.543,0.503,�k�k��,3.4,��
2024/06/02,08:00,0.486,0.745,0.472,0.912,0.663,0.307,0.542,0.501,�k�k��,3.6,��
2024/06/02,08:10,0.485,0.742,0.472,0.914,0.665,0.308,0.542,0.501,�k�k��,2.3,��
2024/06/02,08:20,0.484,0.743,0.470,0.914,0.664,0.308,0.543,0.501,�k�k��,2.9,��
2024/06/02,08:30,0.485,0.745,0.472,0.915,0.665,0.309,0.543,0.500,�k��,3.2,��
2024/06/02,08:40,0.484,0.743,0.472,0.915,0.665,0.308,0.542,0.501,�k�k��,3.3,��
2024/06/02,08:50,0.486,0.743,0.472,0.914,0.664,0.309,0.542,0.502,�k�k��,3.9,��
2024/06/02,09:00,0.485,0.745,0.470,0.915,0.666,0.310,0.542,0.499,�k,4.1,��
2024/06/02,09:10,0.487,0.746,0.471,0.915,0.666,0.309,0.542,0.501,�k�k��,4.4,��
2024/06/02,09:20,0.486,0.745,0.472,0.915,0.667,0.309,0.543,0.503,�k��,4.2,��
2024/06/02,09:30,0.486,0.745,0.473,0.914,0.664,0.310,0.542,0.501,�k��,4.6,��
2024/06/02,09:40,0.485,0.747,0.473,0.914,0.665,0.310,0.542,0.504,�k�k��,4.0,��
2024/06/02,09:50,0.487,0.744,0.472,0.915,0.665,0.310,0.541,0.502,�k��,4.1,��
2024/06/02,10:00,0.487,0.746,0.472,0.916,0.667,0.309,0.543,0.502,�k��,4.2,��
2024/06/02,10:10,0.487,0.748,0.473,0.917,0.667,0.309,0.543,0.503,�k�k��,4.3,��
2024/06/02,10:20,0.487,0.746,0.473,0.914,0.667,0.309,0.542,0.503,�k�k��,3.6,��
2024/06/02,10:30,0.486,0.747,0.474,0.916,0.669,0.310,0.543,0.502,�k��,5.0,��
2024/06/02,10:40,0.487,0.748,0.474,0.916,0.666,0.309,0.543,0.503,�k��,5.7,��
2024/06/02,10:50,0.487,0.749,0.475,0.915,0.669,0.310,0.543,0.504,�k��,5.4,��
2024/06/02,11:00,0.489,0.747,0.473,0.916,0.667,0.310,0.542,0.501,�k�k��,4.9,��
2024/06/02,11:10,0.488,0.749,0.473,0.913,0.669,0.309,0.544,0.503,�k�k��,5.2,��
2024/06/02,11:20,0.489,0.748,0.474,0.913,0.669,0.310,0.543,0.503,�k�k��,5.1,��
2024/06/02,11:30,0.489,0.748,0.473,0.914,0.669,0.311,0.544,0.504,�k�k��,5.5,��
2024/06/02,11:40,0.488,0.750,0.475,0.914,0.669,0.309,0.544,0.503,�k�k��,5.5,��
2024/06/02,11:50,0.490,0.748,0.474,0.915,0.670,0.311,0.544,0.503,�k�k��,5.6,��
2024/06/02,12:00,0.489,0.748,0.475,0.914,0.671,0.310,0.544,0.502,�k�k��,5.3,��
2024/06/02,12:10,0.488,0.752,0.475,0.913,0.670,0.309,0.544,0.503,�k�k��,5.6,��
2024/06/02,12:20,0.489,0.749,0.474,0.915,0.671,0.309,0.544,0.504,�k��,4.1,��
2024/06/02,12:30,0.489,0.750,0.476,0.914,0.670,0.310,0.543,0.502,���k��,5.2,��
2024/06/02,12:40,0.489,0.751,0.474,0.913,0.671,0.311,0.545,0.505,�k��,4.4,��
2024/06/02,12:50,0.487,0.749,0.474,0.913,0.669,0.310,0.542,0.503,���k��,2.5,��
2024/06/02,13:00,0.488,0.751,0.473,0.913,0.670,0.310,0.543,0.505,���k��,3.0,��
2024/06/02,13:10,0.489,0.750,0.474,0.914,0.671,0.310,0.543,0.503,�k��,3.6,��
2024/06/02,13:20,0.489,0.751,0.475,0.914,0.671,0.311,0.543,0.503,���k��,3.5,��
2024/06/02,13:30,0.489,0.750,0.474,0.914,0.671,0.311,0.542,0.504,���k��,4.9,��
2024/06/02,13:40,0.489,0.750,0.477,0.916,0.669,0.310,0.543,0.504,���k��,4.5,��
2024/06/02,13:50,0.490,0.750,0.473,0.917,0.670,0.310,0.541,0.503,���k��,4.8,��
2024/06/02,14:00,0.488,0.751,0.472,0.917,0.670,0.311,0.541,0.503,�k��,5.1,��
2024/06/02,14:10,0.490,0.751,0.476,0.914,0.671,0.310,0.543,0.502,�k��,4.7,��
2024/06/02,14:20,0.488,0.751,0.474,0.916,0.670,0.309,0.543,0.503,���k��,4.9,��
2024/06/02,14:30,0.489,0.750,0.476,0.918,0.671,0.311,0.542,0.504,���k��,5.0,��
2024/06/02,14:40,0.487,0.751,0.474,0.919,0.670,0.311,0.543,0.503,���k��,4.3,��
2024/06/02,14:50,0.488,0.751,0.474,0.916,0.671,0.310,0.543,0.502,�k��,4.0,��
2024/06/02,15:00,0.487,0.751,0.473,0.919,0.671,0.310,0.543,0.502,���k��,3.3,��
2024/06/02,15:10,0.487,0.751,0.473,0.918,0.671,0.311,0.543,0.503,�k��,3.5,��
2024/06/02,15:20,0.487,0.751,0.474,0.919,0.670,0.310,0.543,0.502,���k��,2.6,�L
2024/06/02,15:30,0.487,0.751,0.475,0.917,0.672,0.310,0.544,0.503,���k��,0.6,�L
2024/06/02,15:40,0.488,0.751,0.475,0.918,0.669,0.309,0.544,0.503,��,1.7,�L
2024/06/02,15:50,0.488,0.751,0.475,0.918,0.670,0.310,0.544,0.502,���쓌,2.0,�L
2024/06/02,16:00,0.489,0.751,0.474,0.920,0.673,0.311,0.542,0.504,��,2.6,�L
2024/06/02,16:10,0.489,0.751,0.476,0.919,0.671,0.310,0.544,0.502,���k��,2.3,�L
2024/06/02,16:20,0.488,0.753,0.475,0.919,0.670,0.311,0.543,0.504,���k��,4.0,�L
2024/06/02,16:30,0.489,0.751,0.477,0.919,0.671,0.312,0.544,0.503,��,3.3,�L
2024/06/02,16:40,0.490,0.753,0.478,0.920,0.671,0.311,0.542,0.502,��,3.6,�L
2024/06/02,16:50,0.489,0.752,0.476,0.920,0.670,0.312,0.544,0.504,���k��,2.8,�L
2024/06/02,17:00,0.487,0.751,0.477,0.919,0.671,0.312,0.544,0.502,���k��,2.6,�L
2024/06/02,17:10,0.488,0.753,0.477,0.918,0.675,0.312,0.545,0.504,���k��,1.7,�L
2024/06/02,17:20,0.489,0.754,0.476,0.920,0.672,0.310,0.544,0.505,�k��,2.0,��
2024/06/02,17:30,0.488,0.755,0.476,0.919,0.673,0.310,0.545,0.505,�k��,1.2,��
2024/06/02,17:40,0.489,0.753,0.479,0.919,0.672,0.313,0.544,0.504,���k��,1.1,��
2024/06/02,17:50,0.490,0.754,0.475,0.920,0.675,0.311,0.544,0.504,���k��,1.5,�L
2024/06/02,18:00,0.490,0.754,0.478,0.919,0.674,0.312,0.544,0.507,���k��,1.9,�L
2024/06/02,18:10,0.491,0.755,0.476,0.917,0.674,0.312,0.543,0.504,�k��,2.9,�L
2024/06/02,18:20,0.491,0.753,0.478,0.917,0.674,0.311,0.545,0.504,��,2.9,�L
2024/06/02,18:30,0.489,0.753,0.477,0.918,0.672,0.312,0.544,0.504,��,3.3,�L
2024/06/02,18:40,0.490,0.751,0.476,0.919,0.672,0.310,0.544,0.506,���k��,4.1,�L
2024/06/02,18:50,0.489,0.754,0.478,0.917,0.673,0.312,0.543,0.503,�k��,3.5,�L
2024/06/02,19:00,0.487,0.753,0.477,0.920,0.673,0.311,0.543,0.505,�k��,3.5,�L
2024/06/02,19:10,0.487,0.753,0.477,0.919,0.674,0.312,0.542,0.503,���k��,1.4,�L
2024/06/02,19:20,0.488,0.752,0.476,0.919,0.670,0.312,0.542,0.505,���k��,1.4,�L
2024/06/02,19:30,0.489,0.748,0.478,0.917,0.670,0.312,0.543,0.504,�k�k��,0.9,�L
2024/06/02,19:40,0.489,0.751,0.476,0.919,0.671,0.312,0.542,0.504,�k�k��,1.7,�L
2024/06/02,19:50,0.489,0.749,0.476,0.919,0.671,0.312,0.541,0.503,�k,1.7,�L
2024/06/02,20:00,0.488,0.749,0.476,0.919,0.670,0.312,0.540,0.503,�k�k��,2.3,�L
2024/06/02,20:10,0.489,0.750,0.474,0.918,0.670,0.311,0.541,0.503,�k,2.3,�L
2024/06/02,20:20,0.489,0.746,0.477,0.916,0.668,0.313,0.540,0.503,�k�k��,1.5,�L
2024/06/02,20:30,0.488,0.745,0.474,0.917,0.668,0.313,0.539,0.503,�k,2.3,�L
2024/06/02,20:40,0.485,0.745,0.473,0.915,0.668,0.313,0.540,0.504,��,1.7,�L
2024/06/02,20:50,0.487,0.745,0.474,0.915,0.668,0.311,0.539,0.502,��,4.0,�L
2024/06/02,21:00,0.485,0.744,0.471,0.914,0.666,0.311,0.538,0.503,���k��,3.8,�L
2024/06/02,21:10,0.484,0.742,0.473,0.914,0.663,0.311,0.538,0.500,���k��,4.3,�L
2024/06/02,21:20,0.483,0.740,0.472,0.912,0.663,0.310,0.538,0.500,���k��,3.5,�L
2024/06/02,21:30,0.484,0.737,0.471,0.912,0.662,0.310,0.539,0.500,���k��,5.1,�L
2024/06/02,21:40,0.483,0.739,0.471,0.911,0.661,0.310,0.539,0.500,���k��,5.7,�L
2024/06/02,21:50,0.483,0.739,0.471,0.913,0.662,0.310,0.538,0.501,��,5.0,�L
2024/06/02,22:00,0.482,0.736,0.471,0.909,0.661,0.309,0.538,0.500,��,4.0,�L
2024/06/02,22:10,0.482,0.738,0.470,0.911,0.660,0.311,0.537,0.500,���쓌,2.3,�L
2024/06/02,22:20,0.483,0.737,0.470,0.910,0.660,0.310,0.539,0.499,�쓌,3.0,�L
2024/06/02,22:30,0.481,0.735,0.469,0.909,0.660,0.310,0.538,0.500,�쓌,2.8,�L
2024/06/02,22:40,0.482,0.737,0.470,0.908,0.658,0.309,0.538,0.501,�k�k��,1.9,�L
2024/06/02,22:50,0.480,0.732,0.466,0.905,0.655,0.311,0.535,0.498,�k,4.3,�L
2024/06/02,23:00,0.478,0.730,0.467,0.905,0.655,0.310,0.534,0.498,�k�k��,5.3,�L
2024/06/02,23:10,0.476,0.728,0.466,0.901,0.654,0.310,0.534,0.497,�k�k��,5.5,�L
2024/06/02,23:20,0.478,0.729,0.467,0.899,0.652,0.310,0.533,0.497,�k�k��,5.9,�L
2024/06/02,23:30,0.477,0.726,0.467,0.898,0.650,0.310,0.533,0.497,�k�k��,5.3,�L
2024/06/02,23:40,0.477,0.725,0.467,0.898,0.652,0.309,0.534,0.496,�k�k��,5.5,�L
2024/06/02,23:50,0.477,0.727,0.467,0.896,0.653,0.309,0.533,0.497,�k�k��,5.4,��
